Berlin, NH

12:03 AM EDT on April 26, 2018 (GMT -0400)
Berlin Municipal

Weather History for KBML - February, 2011

Change the Weather History Date:

Tuesday, February 1, 2011

  Actual Average Record
Temperature  
Mean Temperature 2 °F -  
Max Temperature 12 °F 25 °F 54 °F (2016)
Min Temperature -7 °F 1 °F -20 °F (2009)
Degree Days  
Heating Degree Days 62    
Moisture  
Dew Point 3 °F    
Average Humidity 79    
Maximum Humidity 88    
Minimum Humidity 58    
Precipitation  
Precipitation 0.07 in - - ()
Sea Level Pressure  
Sea Level Pressure 30.37 in    
Wind  
Wind Speed 0 mph (North)    
Max Wind Speed 0 mph    
Max Gust Speed -    
Visibility 4 miles    
Events Fog , Snow    
Averages and records for this station are not official NWS values.
T = Trace of Precipitation, MM = Missing Value Source: NWS Daily Summary

Daily Weather History Graph

Daily Weather History Graph

Search for Another Location

Airport or City:

Astronomy

Feb. 01, 2011 Rise Set
Actual Time 7:03 AM EST 4:53 PM EST
Civil Twilight 6:32 AM EST 5:24 PM EST
Nautical Twilight 5:57 AM EST 5:59 PM EST
Astronomical Twilight 5:23 AM EST 6:33 PM EST
Moon 6:02 AM EST (2/1) 3:42 PM EST (2/1)
Length of Visible Light 10h 51m
Length of Day
9h 49m
Waning Crescent, 2% of the Moon is Illuminated
Feb 1
Waning Crescent
Feb 2
New
Feb 11
First Quarter
Feb 18
Full
Feb 24
Last Quarter

Hourly Weather History & Observations

Time (EST) Temp. Dew Point Humidity Pressure Visibility Wind Dir Wind Speed Gust Speed Precip Events Conditions
12:52 AM -7.1 °F -13.0 °F 75% 30.52 in 7.0 mi Calm Calm - N/A   Clear
1:52 AM -7.1 °F -11.9 °F 79% 30.51 in 9.0 mi Calm Calm - N/A   Partly Cloudy
3:52 AM -7.1 °F -11.9 °F 79% 30.49 in 8.0 mi Calm Calm - N/A   Overcast
4:52 AM -5.1 °F -9.9 °F 80% 30.48 in 7.0 mi Calm Calm - N/A   Mostly Cloudy
5:52 AM -2.9 °F -9.9 °F 72% 30.49 in 10.0 mi Calm Calm - N/A   Overcast
6:52 AM -2.0 °F -8.0 °F 76% 30.52 in 10.0 mi Calm Calm - N/A   Mostly Cloudy
7:52 AM -0.9 °F -8.0 °F 72% 30.51 in 9.0 mi Calm Calm - N/A   Scattered Clouds
8:52 AM 1.9 °F -8.0 °F 63% 30.49 in 10.0 mi Calm Calm - N/A   Clear
9:52 AM 5.0 °F -7.1 °F 58% 30.48 in 10.0 mi Calm Calm - N/A   Scattered Clouds
10:31 AM 5.0 °F -5.8 °F 61% 30.37 in 5.0 mi Calm Calm - 0.00 in Snow Light Snow
10:41 AM 5.0 °F -4.0 °F 66% 30.37 in 1.8 mi Calm Calm - 0.00 in Snow Light Snow
10:52 AM 5.0 °F -2.9 °F 70% 30.47 in 1.2 mi Calm Calm - 0.00 in Snow Light Snow
10:58 AM 6.8 °F -2.2 °F 67% 30.36 in 1.5 mi Calm Calm - 0.00 in Snow Light Snow
11:12 AM 6.8 °F -0.4 °F 72% 30.35 in 1.5 mi Calm Calm - 0.00 in Snow Light Snow
11:17 AM 6.8 °F -0.4 °F 72% 30.35 in 1.0 mi Calm Calm - 0.00 in Snow Light Snow
11:32 AM 6.8 °F -0.4 °F 72% 30.35 in 0.8 mi Calm Calm - 0.00 in Snow Light Snow
11:47 AM 6.8 °F 1.4 °F 79% 30.34 in 1.0 mi Calm Calm - 0.00 in Snow Light Snow
11:52 AM 8.1 °F 1.0 °F 73% 30.44 in 1.0 mi Calm Calm - 0.00 in Snow Light Snow
12:04 PM 6.8 °F 1.4 °F 79% 30.33 in 0.8 mi Calm Calm - 0.00 in Snow Light Snow
12:52 PM 10.0 °F 3.9 °F 76% 30.41 in 0.8 mi Calm Calm - 0.01 in Snow Light Snow
1:52 PM 10.9 °F 6.1 °F 81% 30.38 in 0.8 mi Calm Calm - 0.01 in Snow Light Snow
2:05 PM 10.4 °F 6.8 °F 85% 30.29 in 1.0 mi Calm Calm - 0.00 in Snow Light Snow
2:19 PM 12.2 °F 6.8 °F 79% 30.29 in 1.5 mi Calm Calm - 0.00 in Snow Light Snow
2:39 PM 10.4 °F 6.8 °F 85% 30.30 in 1.0 mi Calm Calm - 0.00 in Snow Light Snow
2:52 PM 12.0 °F 7.0 °F 80% 30.39 in 1.2 mi Calm Calm - 0.00 in Snow Light Snow
3:06 PM 12.2 °F 6.8 °F 79% 30.29 in 0.8 mi Calm Calm - 0.01 in Snow Light Snow
3:52 PM 12.0 °F 8.1 °F 84% 30.39 in 1.0 mi Calm Calm - 0.02 in Snow Light Snow
4:30 PM 12.2 °F 8.6 °F 85% 30.28 in 0.5 mi Calm Calm - 0.01 in Fog , Snow Snow
4:48 PM 12.2 °F 8.6 °F 85% 30.28 in 1.2 mi Calm Calm - 0.01 in Snow Light Snow
4:52 PM 12.0 °F 8.1 °F 84% 30.37 in 1.5 mi Calm Calm - 0.01 in Snow Light Snow
5:00 PM 12.2 °F 8.6 °F 85% 30.28 in 3.0 mi Calm Calm - 0.00 in Snow Light Snow
5:20 PM 12.2 °F 8.6 °F 85% 30.28 in 1.8 mi Calm Calm - 0.00 in Snow Light Snow
5:32 PM 12.2 °F 8.6 °F 85% 30.29 in 1.2 mi Calm Calm - 0.00 in Snow Light Snow
5:52 PM 12.0 °F 9.0 °F 88% 30.39 in 1.5 mi Calm Calm - 0.01 in Snow Light Snow
6:22 PM 12.2 °F 8.6 °F 85% 30.32 in 1.0 mi Calm Calm - 0.00 in Snow Light Snow
6:42 PM 12.2 °F 8.6 °F 85% 30.31 in 2.0 mi Calm Calm - 0.00 in Snow Light Snow
6:52 PM 12.0 °F 9.0 °F 88% 30.40 in 2.5 mi Calm Calm - 0.01 in Snow Light Snow
7:33 PM 12.2 °F 8.6 °F 85% 30.30 in 4.0 mi Calm Calm - 0.00 in Snow Light Snow
7:52 PM 12.0 °F 9.0 °F 88% 30.39 in 7.0 mi Calm Calm - 0.00 in   Overcast
8:15 PM 12.2 °F 8.6 °F 85% 30.30 in 8.0 mi Calm Calm - N/A   Overcast
8:52 PM 12.0 °F 8.1 °F 84% 30.39 in 7.0 mi Calm Calm - N/A   Overcast
9:17 PM 12.2 °F 8.6 °F 85% 30.28 in 4.0 mi Calm Calm - 0.00 in Snow Light Snow
9:26 PM 12.2 °F 8.6 °F 85% 30.28 in 4.0 mi Calm Calm - 0.00 in Snow Light Snow
9:33 PM 12.2 °F 8.6 °F 85% 30.28 in 4.0 mi Calm Calm - 0.00 in Snow Light Snow
9:52 PM 12.0 °F 8.1 °F 84% 30.36 in 6.0 mi Calm Calm - 0.00 in Snow Light Snow
10:52 PM 12.0 °F 9.0 °F 88% 30.35 in 10.0 mi Calm Calm - 0.00 in   Overcast
11:52 PM 12.0 °F 9.0 °F 88% 30.35 in 8.0 mi Calm Calm - N/A   Overcast